Location: Unspecified
(0.0000°N, 0.0000°E)
Time: 01:16:23
(UTC+00:00)

SRMSAT - Pass Details

Date: 04 April 2019
Orbit: 849 x 866 km, 20.0° (Epoch: 17 April)

Event Time Altitude Azimuth Distance (km) Brightness Sun altitude
Rises 18:48:03 0° 244° (WSW) 3,426 ? -11.2°
Reaches altitude 10° 18:50:38 10° 242° (WSW) 2,486 ? -11.8°
Maximum altitude 18:56:36 70° 159° (SSE) 905 ? -13.3°
Enters shadow 19:00:55 19° 78° (ENE) 1,912 ? -14.4°
